Location: ??????
(55.6361°N, 38.0803°E)
Time: 00:31:27
(UTC+00:00)

Cosmos 2360 Rocket - Pass Details

Date: 30 March 2020
Orbit: 834 x 845 km, 71.0° (Epoch: 26 May)

Event Time Altitude Azimuth Distance (km) Brightness Sun altitude
Rises 00:23:43 0° 322° (NW) 3,395 5.4 -20.9°
Reaches altitude 10° 00:26:24 10° 313° (NW) 2,457 4.6 -20.6°
Enters shadow 00:30:26 30° 270° (W) 1,466 3.0 -20.2°
